Location: Casco Volunteer Fire Department
(44.5576°N, 87.6146°W)
Time: 05:17:16
(UTC+00:00)

BlueWalker 3 - Pass Details

Date: 15 March 2026
Orbit: 449 x 457 km, 53.2° (Epoch: 15 April)

Event Time Altitude Azimuth Distance (km) Brightness Sun altitude
Exits shadow 09:57:14 40° 3° (N) 692 2.7 -22.8°
Maximum altitude 09:57:41 42° 25° (NNE) 664 2.8 -22.7°
Drops below altitude 10° 10:01:07 10° 98° (E) 1,595 5.3 -22.1°
Sets 10:03:20 0° 106° (ESE) 2,465 6.3 -21.7°
